Regional Weather Roundup
Issued by NWS

Home | Current Version | Previous Version | Text Only | Print | Product List | Glossary Off
Versions: 1 2 3 4 5 6 7 8 9 10 11 12 13 14 15 16 17 18 19 20 21 22 23 24 25 26 27 28 29 30 31 32 33 34 35 36 37 38 39 40 41 42 43 44 45 46 47 48 49 50

000
ASUS43 KBIS 060510
RWRND

NORTH DAKOTA REGIONAL WEATHER ROUNDUP
NATIONAL WEATHER SERVICE BISMARCK ND
1200 AM CDT FRI MAY 06 2016

NOTE: "FAIR" INDICATES FEW OR NO CLOUDS BELOW 12,000 FEET WITH NO
SIGNIFICANT WEATHER AND/OR OBSTRUCTIONS TO VISIBILITY.


NDZ001>003-009>011-017-060600-
NORTHWEST NORTH DAKOTA

CITY           SKY/WX    TMP DP  RH WIND       PRES   REMARKS
WILLISTON      PTCLDY    72  39  30 NE8       29.78R
MINOT          CLEAR     73  38  27 SW9       29.72F
MINOT AFB      CLEAR     70  38  31 SW12      29.70F
$$

NDZ018>021-031>035-040>046-060600-
SOUTHWEST NORTH DAKOTA

CITY           SKY/WX    TMP DP  RH WIND       PRES   REMARKS
BISMARCK       CLOUDY    63  46  54 CALM      29.78F
DICKINSON      CLEAR     58  38  47 S7        29.80S
GARRISON         N/A     63  42  46 S3        29.76F
HETTINGER ARPT CLOUDY    56  47  71 CALM      29.85S
$$

NDZ004>008-012>016-024-026-027-054-060600-
NORTHEAST NORTH DAKOTA

CITY           SKY/WX    TMP DP  RH WIND       PRES   REMARKS
GRAND FORKS    PTCLDY    66  41  40 S12       29.70F
GRND FRKS AFB  CLEAR     64  39  39 SW8       29.70F
DEVILS LAKE    CLOUDY    68  44  42 SW12      29.73F
$$

NDZ022-023-025-028>030-036>039-047>053-060600-
SOUTHEAST NORTH DAKOTA

CITY           SKY/WX    TMP DP  RH WIND       PRES   REMARKS
FARGO          CLOUDY    74  40  29 SW15      29.77R
JAMESTOWN      PTCLDY    63  47  55 S8        29.78F
$$




USA.gov is the U.S. government's official web portal to all federal, state and local government web resources and services.